UAE247 SBGL-SAEZ

Flight info

Callsign UAE247
Flight time N/A
Altitude 34000
Route BITAK UN857 NELOX UM534 DADUT UN741 PAPIX PAPIX7B
Aircraft B77W/H-SDE1E2E3FGHIJ2J3J4J5M1RWXY/LB1D1

Departure

Time 2026-04-30 12:59
Airport Rio Galeão – Tom Jobim International Airport (SBGL)

Arrival

Time N/A
Airport Ezeiza International Airport - Ministro Pistarini (SAEZ)
Time Latitude Longitude Altitude Speed Heading
2026-04-30 11:33 -22.81843 -43.24226 26 ft 0 kts 306°
2026-04-30 12:45 -22.81856 -43.24207 25 ft 4 kts 306°
2026-04-30 12:45 -22.81871 -43.24184 25 ft 3 kts 306°
2026-04-30 12:45 -22.81882 -43.24163 25 ft 4 kts 264°
2026-04-30 12:45 -22.81870 -43.24144 24 ft 4 kts 210°
2026-04-30 12:46 -22.81853 -43.24131 24 ft 1 kts 230°
2026-04-30 12:46 -22.81850 -43.24128 24 ft 0 kts 230°
2026-04-30 12:49 -22.81853 -43.24131 24 ft 1 kts 230°
2026-04-30 12:49 -22.81869 -43.24148 24 ft 7 kts 223°
2026-04-30 12:49 -22.81939 -43.24205 26 ft 16 kts 216°
2026-04-30 12:50 -22.82010 -43.24262 26 ft 8 kts 216°
2026-04-30 12:50 -22.82057 -43.24298 30 ft 8 kts 216°
2026-04-30 12:50 -22.82080 -43.24350 29 ft 8 kts 279°
2026-04-30 12:50 -22.82055 -43.24406 29 ft 8 kts 300°
2026-04-30 12:51 -22.82023 -43.24459 31 ft 8 kts 304°
2026-04-30 12:51 -22.81989 -43.24511 31 ft 8 kts 307°
2026-04-30 12:51 -22.81960 -43.24565 29 ft 8 kts 284°
2026-04-30 12:51 -22.81964 -43.24629 29 ft 9 kts 270°
2026-04-30 12:52 -22.81940 -43.24687 31 ft 9 kts 305°
2026-04-30 12:52 -22.81905 -43.24740 30 ft 9 kts 305°
2026-04-30 12:52 -22.81865 -43.24801 29 ft 12 kts 306°
2026-04-30 12:52 -22.81806 -43.24890 32 ft 17 kts 304°
2026-04-30 12:53 -22.81733 -43.25000 29 ft 18 kts 306°
2026-04-30 12:53 -22.81658 -43.25112 30 ft 18 kts 306°
2026-04-30 12:53 -22.81584 -43.25224 30 ft 18 kts 305°
2026-04-30 12:53 -22.81511 -43.25337 29 ft 18 kts 305°
2026-04-30 12:54 -22.81436 -43.25449 31 ft 18 kts 306°
2026-04-30 12:54 -22.81361 -43.25561 30 ft 18 kts 305°
2026-04-30 12:54 -22.81288 -43.25673 27 ft 18 kts 306°
2026-04-30 12:54 -22.81222 -43.25772 26 ft 10 kts 306°
2026-04-30 12:55 -22.81194 -43.25830 26 ft 8 kts 277°
2026-04-30 12:55 -22.81220 -43.25886 30 ft 9 kts 230°
2026-04-30 12:55 -22.81252 -43.25941 30 ft 9 kts 239°
2026-04-30 12:55 -22.81282 -43.25995 30 ft 8 kts 250°
2026-04-30 12:56 -22.81268 -43.26053 32 ft 8 kts 301°
2026-04-30 12:56 -22.81236 -43.26105 32 ft 8 kts 305°
2026-04-30 12:56 -22.81204 -43.26155 33 ft 8 kts 305°
2026-04-30 12:56 -22.81171 -43.26205 33 ft 8 kts 306°
2026-04-30 12:57 -22.81136 -43.26257 34 ft 9 kts 304°
2026-04-30 12:57 -22.81127 -43.26322 35 ft 9 kts 250°
2026-04-30 12:57 -22.81182 -43.26345 36 ft 9 kts 176°
2026-04-30 12:57 -22.81241 -43.26321 36 ft 9 kts 156°
2026-04-30 12:58 -22.81299 -43.26275 35 ft 12 kts 130°
2026-04-30 12:58 -22.81368 -43.26173 35 ft 28 kts 126°
2026-04-30 12:58 -22.81580 -43.25858 31 ft 86 kts 126°
2026-04-30 12:58 -22.82071 -43.25119 29 ft 153 kts 126°
2026-04-30 12:59 -22.82745 -43.24069 346 ft 169 kts 124°
2026-04-30 12:59 -22.83324 -43.23013 1027 ft 164 kts 110°
2026-04-30 12:59 -22.83263 -43.21768 1377 ft 175 kts 62°
2026-04-30 12:59 -22.82674 -43.20582 1803 ft 187 kts 63°
2026-04-30 13:00 -22.82072 -43.19220 1989 ft 214 kts 64°
2026-04-30 13:00 -22.81407 -43.17679 2312 ft 238 kts 64°
2026-04-30 13:00 -22.80699 -43.16023 2942 ft 246 kts 64°
2026-04-30 13:00 -22.79985 -43.14334 3721 ft 246 kts 64°
2026-04-30 13:01 -22.79276 -43.12644 4497 ft 247 kts 64°
2026-04-30 13:01 -22.78563 -43.10935 5260 ft 251 kts 64°
2026-04-30 13:01 -22.77842 -43.09204 6003 ft 253 kts 65°
2026-04-30 13:01 -22.77115 -43.07460 6707 ft 255 kts 65°
2026-04-30 13:02 -22.76391 -43.05693 7339 ft 257 kts 69°
2026-04-30 13:02 -22.76157 -43.03764 7810 ft 265 kts 100°
2026-04-30 13:02 -22.76925 -43.01961 8420 ft 268 kts 133°
2026-04-30 13:02 -22.78408 -43.00753 8953 ft 271 kts 150°
2026-04-30 13:03 -22.80060 -42.99716 9559 ft 277 kts 150°
2026-04-30 13:03 -22.81737 -42.98656 10232 ft 280 kts 150°
2026-04-30 13:03 -22.83445 -42.97629 10820 ft 282 kts 159°
2026-04-30 13:03 -22.85381 -42.97305 11311 ft 286 kts 190°
2026-04-30 13:04 -22.87244 -42.98058 11842 ft 293 kts 215°
2026-04-30 13:04 -22.88929 -42.99443 12029 ft 317 kts 220°
2026-04-30 13:04 -22.90719 -43.01013 12224 ft 344 kts 220°
2026-04-30 13:04 -22.92648 -43.02714 12438 ft 369 kts 220°
2026-04-30 13:05 -22.94684 -43.04495 13007 ft 381 kts 220°
2026-04-30 13:05 -22.96779 -43.06310 13775 ft 388 kts 220°
2026-04-30 13:05 -22.98901 -43.08141 14577 ft 391 kts 220°
2026-04-30 13:06 -23.03161 -43.11838 16197 ft 394 kts 221°
2026-04-30 13:06 -23.05302 -43.13712 16910 ft 397 kts 222°
2026-04-30 13:06 -23.07459 -43.15604 17647 ft 400 kts 222°
2026-04-30 13:06 -23.09635 -43.17512 18382 ft 403 kts 223°
2026-04-30 13:07 -23.11828 -43.19434 19007 ft 407 kts 223°
2026-04-30 13:07 -23.14043 -43.21375 19612 ft 411 kts 223°
2026-04-30 13:07 -23.16278 -43.23336 20213 ft 415 kts 223°
2026-04-30 13:07 -23.18535 -43.25315 20819 ft 419 kts 223°
2026-04-30 13:08 -23.20810 -43.27310 21460 ft 422 kts 223°
2026-04-30 13:08 -23.23104 -43.29323 22063 ft 426 kts 223°
2026-04-30 13:08 -23.25418 -43.31355 22639 ft 429 kts 223°
2026-04-30 13:08 -23.27720 -43.33377 23229 ft 433 kts 224°
2026-04-30 13:09 -23.30076 -43.35447 23754 ft 437 kts 224°
2026-04-30 13:09 -23.32449 -43.37533 24245 ft 440 kts 224°
2026-04-30 13:09 -23.34839 -43.39625 24779 ft 442 kts 223°
2026-04-30 13:09 -23.37256 -43.41706 25293 ft 444 kts 223°
2026-04-30 13:10 -23.39697 -43.43792 25751 ft 448 kts 223°
2026-04-30 13:10 -23.42156 -43.45892 26197 ft 451 kts 223°
2026-04-30 13:10 -23.44635 -43.48012 26645 ft 454 kts 223°
2026-04-30 13:10 -23.47127 -43.50146 27120 ft 457 kts 223°
2026-04-30 13:11 -23.49632 -43.52297 27563 ft 460 kts 223°
2026-04-30 13:11 -23.52152 -43.54462 28020 ft 462 kts 223°
2026-04-30 13:11 -23.54682 -43.56638 28500 ft 464 kts 223°
2026-04-30 13:11 -23.57223 -43.58824 28885 ft 466 kts 223°
2026-04-30 13:12 -23.59773 -43.61019 29146 ft 468 kts 223°
2026-04-30 13:12 -23.62338 -43.63228 29367 ft 471 kts 223°
2026-04-30 13:12 -23.64844 -43.65525 29624 ft 470 kts 227°
2026-04-30 13:13 -23.69508 -43.70532 30120 ft 471 kts 230°
2026-04-30 13:13 -23.71801 -43.73095 30365 ft 472 kts 230°
2026-04-30 13:13 -23.76406 -43.78164 31002 ft 469 kts 229°
2026-04-30 13:14 -23.78716 -43.80664 31323 ft 467 kts 229°
2026-04-30 13:14 -23.81029 -43.83155 31600 ft 466 kts 229°
2026-04-30 13:14 -23.85646 -43.88115 32189 ft 464 kts 229°
2026-04-30 13:15 -23.87941 -43.90582 32522 ft 462 kts 229°
2026-04-30 13:15 -23.92506 -43.95502 33073 ft 460 kts 229°
2026-04-30 13:15 -23.94784 -43.97961 33317 ft 460 kts 229°
2026-04-30 13:16 -23.97059 -44.00417 33567 ft 459 kts 229°
2026-04-30 13:16 -23.99329 -44.02868 33836 ft 458 kts 229°
2026-04-30 13:16 -24.01593 -44.05313 34107 ft 457 kts 229°
2026-04-30 13:17 -24.06099 -44.10183 34599 ft 454 kts 229°
2026-04-30 13:17 -24.08343 -44.12613 34813 ft 453 kts 229°
2026-04-30 13:17 -24.12062 -44.16642 35156 ft 452 kts 229°
2026-04-30 13:18 -24.15043 -44.19874 35433 ft 450 kts 229°
2026-04-30 13:18 -24.19479 -44.24688 35917 ft 446 kts 230°
2026-04-30 13:18 -24.21652 -44.27048 36037 ft 447 kts 230°
2026-04-30 13:19 -24.26064 -44.31846 36096 ft 446 kts 230°
2026-04-30 13:19 -24.30452 -44.36620 36107 ft 444 kts 230°
2026-04-30 13:20 -24.34826 -44.41384 36129 ft 442 kts 230°
2026-04-30 13:20 -24.39186 -44.46139 36111 ft 442 kts 230°
2026-04-30 13:21 -24.42801 -44.50085 36112 ft 441 kts 230°
2026-04-30 13:22 -24.49320 -44.57210 36108 ft 440 kts 230°
2026-04-30 13:22 -24.55772 -44.64382 36103 ft 440 kts 231°
2026-04-30 13:23 -24.62196 -44.71580 36105 ft 440 kts 231°
2026-04-30 13:24 -24.70761 -44.81175 36115 ft 439 kts 231°
2026-04-30 13:25 -24.79303 -44.90759 36101 ft 438 kts 231°
2026-04-30 13:26 -24.89924 -45.02705 36107 ft 435 kts 231°
2026-04-30 13:28 -25.00439 -45.14564 36112 ft 433 kts 231°
2026-04-30 13:28 -25.06749 -45.21695 36107 ft 433 kts 231°
2026-04-30 13:29 -25.15154 -45.31210 36111 ft 433 kts 232°
2026-04-30 13:31 -25.25641 -45.43112 36108 ft 432 kts 232°
2026-04-30 13:32 -25.36091 -45.55002 36106 ft 431 kts 232°
2026-04-30 13:33 -25.44425 -45.64507 36104 ft 430 kts 232°
2026-04-30 13:34 -25.50659 -45.71632 36109 ft 429 kts 232°
2026-04-30 13:35 -25.58950 -45.81124 36112 ft 428 kts 232°
2026-04-30 13:36 -25.67205 -45.90594 36105 ft 426 kts 232°
2026-04-30 13:36 -25.73372 -45.97681 36116 ft 425 kts 233°
2026-04-30 13:37 -25.79527 -46.04767 36105 ft 425 kts 233°
2026-04-30 13:38 -25.85671 -46.11854 36106 ft 425 kts 233°
2026-04-30 13:39 -25.93861 -46.21318 36107 ft 425 kts 233°
2026-04-30 13:40 -25.99974 -46.28394 36106 ft 425 kts 233°
2026-04-30 13:40 -26.04066 -46.33138 36106 ft 425 kts 233°
2026-04-30 13:41 -26.08156 -46.37884 36120 ft 425 kts 233°
2026-04-30 13:41 -26.12245 -46.42634 36108 ft 425 kts 233°
2026-04-30 13:42 -26.16329 -46.47383 36105 ft 425 kts 233°
2026-04-30 13:42 -26.22448 -46.54509 36106 ft 424 kts 233°
2026-04-30 13:43 -26.26519 -46.59258 36116 ft 424 kts 233°
2026-04-30 13:43 -26.30589 -46.64010 36100 ft 423 kts 233°
2026-04-30 13:44 -26.34651 -46.68757 36105 ft 423 kts 233°
2026-04-30 13:44 -26.38704 -46.73498 36105 ft 422 kts 233°
2026-04-30 13:45 -26.44746 -46.80570 36104 ft 421 kts 233°
2026-04-30 13:46 -26.48784 -46.85303 36108 ft 421 kts 233°
2026-04-30 13:46 -26.52818 -46.90038 36108 ft 421 kts 233°
2026-04-30 13:47 -26.56852 -46.94777 36112 ft 421 kts 233°
2026-04-30 13:47 -26.60884 -46.99523 36117 ft 421 kts 233°
2026-04-30 13:48 -26.64881 -47.04301 36108 ft 421 kts 234°
2026-04-30 13:48 -26.68871 -47.09088 36107 ft 421 kts 233°
2026-04-30 13:49 -26.72868 -47.13877 36120 ft 421 kts 233°
2026-04-30 13:49 -26.76886 -47.18650 36128 ft 421 kts 233°
2026-04-30 13:50 -26.80906 -47.23419 36104 ft 421 kts 233°
2026-04-30 13:50 -26.86917 -47.30572 36111 ft 420 kts 233°
2026-04-30 13:51 -26.90909 -47.35335 36109 ft 419 kts 233°
2026-04-30 13:51 -26.94892 -47.40108 36116 ft 419 kts 233°
2026-04-30 13:52 -26.98866 -47.44879 36111 ft 419 kts 233°
2026-04-30 13:52 -27.02839 -47.49652 36116 ft 418 kts 233°
2026-04-30 13:53 -27.06810 -47.54428 36112 ft 418 kts 233°
2026-04-30 13:53 -27.10779 -47.59207 36114 ft 419 kts 233°
2026-04-30 13:54 -27.14755 -47.64001 36125 ft 420 kts 233°
2026-04-30 13:54 -27.18733 -47.68799 36123 ft 420 kts 233°
2026-04-30 13:55 -27.22714 -47.73609 36119 ft 420 kts 233°
2026-04-30 13:55 -27.26692 -47.78419 36120 ft 420 kts 233°
2026-04-30 13:56 -27.30641 -47.83201 36124 ft 420 kts 233°
2026-04-30 13:56 -27.34643 -47.88052 36118 ft 420 kts 233°
2026-04-30 13:57 -27.38592 -47.92843 36123 ft 420 kts 233°
2026-04-30 13:57 -27.42551 -47.97679 36130 ft 420 kts 233°
2026-04-30 13:58 -27.48472 -48.04949 36132 ft 420 kts 233°
2026-04-30 13:59 -27.52424 -48.09806 36142 ft 421 kts 233°
2026-04-30 13:59 -27.56384 -48.14676 36132 ft 422 kts 233°
2026-04-30 14:00 -27.60349 -48.19557 36132 ft 423 kts 233°
2026-04-30 14:00 -27.66308 -48.26904 36137 ft 423 kts 233°
2026-04-30 14:01 -27.70281 -48.31808 36123 ft 424 kts 233°
2026-04-30 14:01 -27.74260 -48.36722 36122 ft 424 kts 233°
2026-04-30 14:02 -27.78237 -48.41639 36116 ft 424 kts 233°
2026-04-30 14:02 -27.82211 -48.46557 36110 ft 424 kts 233°
2026-04-30 14:03 -27.86182 -48.51480 36113 ft 424 kts 233°
2026-04-30 14:03 -27.90151 -48.56405 36136 ft 424 kts 233°
2026-04-30 14:04 -27.94117 -48.61334 36141 ft 424 kts 233°
2026-04-30 14:04 -27.98093 -48.66279 36150 ft 425 kts 233°
2026-04-30 14:05 -28.02083 -48.71250 36147 ft 427 kts 233°
2026-04-30 14:05 -28.06081 -48.76236 36153 ft 429 kts 233°
2026-04-30 14:06 -28.12092 -48.83743 36146 ft 428 kts 233°
2026-04-30 14:07 -28.18071 -48.91223 36158 ft 426 kts 233°
2026-04-30 14:08 -28.23364 -48.97863 36143 ft 426 kts 233°
2026-04-30 14:08 -28.29297 -49.05373 36139 ft 426 kts 233°
2026-04-30 14:09 -28.33310 -49.10325 36143 ft 426 kts 233°
2026-04-30 14:10 -28.39338 -49.17764 36148 ft 427 kts 233°
2026-04-30 14:10 -28.43359 -49.22748 36142 ft 428 kts 233°
2026-04-30 14:11 -28.47380 -49.27739 36148 ft 428 kts 233°
2026-04-30 14:11 -28.51394 -49.32749 36148 ft 429 kts 233°
2026-04-30 14:12 -28.55414 -49.37776 36153 ft 429 kts 233°
2026-04-30 14:12 -28.59431 -49.42804 36157 ft 429 kts 233°
2026-04-30 14:13 -28.63447 -49.47837 36148 ft 430 kts 233°
2026-04-30 14:13 -28.67462 -49.52875 36152 ft 429 kts 233°
2026-04-30 14:14 -28.71474 -49.57914 36149 ft 429 kts 233°
2026-04-30 14:14 -28.75478 -49.62952 36158 ft 429 kts 233°
2026-04-30 14:15 -28.79486 -49.68000 36151 ft 430 kts 233°
2026-04-30 14:15 -28.83494 -49.73053 36146 ft 430 kts 233°
2026-04-30 14:16 -28.87504 -49.78117 36155 ft 430 kts 233°
2026-04-30 14:16 -28.91531 -49.83172 36155 ft 431 kts 232°
2026-04-30 14:17 -28.95678 -49.88123 36158 ft 432 kts 231°
2026-04-30 14:17 -28.99854 -49.93061 36154 ft 432 kts 232°
2026-04-30 14:18 -29.03987 -49.97981 36162 ft 432 kts 232°
2026-04-30 14:18 -29.10213 -50.05437 36143 ft 432 kts 232°
2026-04-30 14:19 -29.16433 -50.12905 36160 ft 433 kts 232°
2026-04-30 14:20 -29.20585 -50.17896 36152 ft 433 kts 232°
2026-04-30 14:20 -29.26813 -50.25394 36152 ft 433 kts 232°
2026-04-30 14:21 -29.30966 -50.30402 36153 ft 433 kts 232°
2026-04-30 14:22 -29.37191 -50.37922 36149 ft 434 kts 232°
2026-04-30 14:22 -29.43417 -50.45457 36150 ft 434 kts 232°
2026-04-30 14:23 -29.51708 -50.55515 36152 ft 433 kts 232°
2026-04-30 14:24 -29.57826 -50.63160 36152 ft 434 kts 233°
2026-04-30 14:25 -29.65909 -50.73462 36133 ft 434 kts 233°
2026-04-30 14:26 -29.71984 -50.81190 36143 ft 434 kts 233°
2026-04-30 14:27 -29.78064 -50.88934 36145 ft 434 kts 233°
2026-04-30 14:27 -29.82109 -50.94097 36154 ft 434 kts 233°
2026-04-30 14:28 -29.88174 -51.01850 36147 ft 435 kts 233°
2026-04-30 14:28 -29.92217 -51.07027 36152 ft 434 kts 233°
2026-04-30 14:29 -29.99124 -51.16863 36149 ft 427 kts 244°
2026-04-30 14:31 -30.05523 -51.33865 36144 ft 443 kts 252°
2026-04-30 14:31 -30.08884 -51.43840 36141 ft 446 kts 252°
2026-04-30 14:32 -30.12262 -51.53831 36140 ft 444 kts 252°
2026-04-30 14:33 -30.14500 -51.60468 36150 ft 442 kts 252°
2026-04-30 14:33 -30.17835 -51.70386 36138 ft 441 kts 252°
2026-04-30 14:34 -30.20047 -51.76979 36135 ft 439 kts 252°
2026-04-30 14:34 -30.22250 -51.83558 36147 ft 439 kts 252°
2026-04-30 14:35 -30.25546 -51.93430 36143 ft 439 kts 252°
2026-04-30 14:36 -30.27741 -52.00017 36144 ft 439 kts 252°
2026-04-30 14:36 -30.29943 -52.06611 36144 ft 440 kts 252°
2026-04-30 14:37 -30.32150 -52.13220 36136 ft 440 kts 252°
2026-04-30 14:37 -30.34355 -52.19837 36138 ft 441 kts 252°
2026-04-30 14:38 -30.36559 -52.26463 36135 ft 441 kts 252°
2026-04-30 14:38 -30.38757 -52.33096 36138 ft 441 kts 253°
2026-04-30 14:39 -30.40949 -52.39741 36132 ft 442 kts 253°
2026-04-30 14:39 -30.43124 -52.46348 36130 ft 442 kts 253°
2026-04-30 14:40 -30.46402 -52.56327 36138 ft 442 kts 253°
2026-04-30 14:40 -30.48584 -52.62984 36134 ft 442 kts 253°
2026-04-30 14:41 -30.50766 -52.69644 36129 ft 442 kts 253°
2026-04-30 14:41 -30.52959 -52.76302 36128 ft 442 kts 253°
2026-04-30 14:42 -30.55152 -52.82967 36142 ft 442 kts 253°
2026-04-30 14:42 -30.57340 -52.89642 36129 ft 443 kts 253°
2026-04-30 14:43 -30.59523 -52.96317 36134 ft 442 kts 253°
2026-04-30 14:43 -30.61704 -53.02997 36140 ft 442 kts 253°
2026-04-30 14:44 -30.63881 -53.09679 36135 ft 442 kts 253°
2026-04-30 14:44 -30.66040 -53.16364 36134 ft 442 kts 253°
2026-04-30 14:45 -30.68167 -53.23061 36126 ft 442 kts 254°
2026-04-30 14:45 -30.70292 -53.29757 36137 ft 442 kts 254°
2026-04-30 14:46 -30.72415 -53.36451 36135 ft 442 kts 254°
2026-04-30 14:46 -30.74210 -53.42004 36137 ft 442 kts 253°
2026-04-30 14:47 -30.76821 -53.49740 36130 ft 442 kts 253°
2026-04-30 14:47 -30.79067 -53.56393 36137 ft 442 kts 253°
2026-04-30 14:48 -30.81297 -53.63052 36119 ft 442 kts 253°
2026-04-30 14:48 -30.83519 -53.69718 36135 ft 442 kts 253°
2026-04-30 14:49 -30.85737 -53.76383 36136 ft 442 kts 253°
2026-04-30 14:49 -30.87952 -53.83052 36137 ft 442 kts 253°
2026-04-30 14:50 -30.91269 -53.93065 36118 ft 442 kts 253°
2026-04-30 14:51 -30.94577 -54.03081 36126 ft 442 kts 253°
2026-04-30 14:52 -30.98270 -54.12931 36124 ft 449 kts 243°
2026-04-30 14:52 -31.04294 -54.21436 36128 ft 461 kts 230°
2026-04-30 14:53 -31.11435 -54.29004 36123 ft 463 kts 229°
2026-04-30 14:54 -31.20113 -54.38318 36117 ft 463 kts 230°
2026-04-30 14:55 -31.27949 -54.46818 36119 ft 462 kts 230°
2026-04-30 14:56 -31.36618 -54.56239 36122 ft 463 kts 230°
2026-04-30 14:57 -31.43654 -54.63902 36116 ft 463 kts 230°
2026-04-30 14:58 -31.53134 -54.74109 36114 ft 463 kts 229°
2026-04-30 14:58 -31.60256 -54.81767 36115 ft 463 kts 230°
2026-04-30 15:00 -31.72105 -54.94569 36119 ft 463 kts 230°
2026-04-30 15:01 -31.81575 -55.04834 36121 ft 463 kts 230°
2026-04-30 15:01 -31.88668 -55.12542 36117 ft 463 kts 230°
2026-04-30 15:02 -31.93390 -55.17683 36113 ft 462 kts 230°
2026-04-30 15:03 -32.05180 -55.30553 36125 ft 462 kts 230°
2026-04-30 15:04 -32.16936 -55.43432 36111 ft 461 kts 230°
2026-04-30 15:06 -32.28657 -55.56322 36116 ft 461 kts 230°
2026-04-30 15:07 -32.38031 -55.66663 36110 ft 460 kts 230°
2026-04-30 15:08 -32.47349 -55.76974 36112 ft 460 kts 230°
2026-04-30 15:09 -32.59010 -55.89922 36106 ft 459 kts 230°
2026-04-30 15:10 -32.68324 -56.00298 36118 ft 459 kts 230°
2026-04-30 15:11 -32.82238 -56.15858 36105 ft 457 kts 230°
2026-04-30 15:13 -32.93788 -56.28830 36107 ft 457 kts 231°
2026-04-30 15:14 -33.09870 -56.47038 36090 ft 456 kts 231°
2026-04-30 15:17 -33.30449 -56.70506 36086 ft 454 kts 231°
2026-04-30 15:19 -33.48668 -56.91413 36095 ft 453 kts 231°